[[{"header":{"parameterUnit":"m.s-1","parameterCategory":1,"la1":30.2992,"la2":30.254,"lo1":-89.0895,"lo2":-89.0443,"dy":0.0025,"dx":0.0025,"nx":19,"ny":19,"refTime":"2026-03-26T21:00:00:Z","depth":0,"parameterNumber":2,"parameterNumberName":"U-component_of_WINDS"},"data":[0,0,0,-0.7147,-0.7146,-0.7121,-0.7121,-0.7092,-0.7092,0,0,0,0,0,0,0,0,0,0,0,-0.7156,-0.7156,-0.7147,-0.7146,-0.7121,-0.7121,-0.7092,-0.7092,0,0,0,0,0,0,0,0,0,0,0,-0.7156,-0.7156,-0.7156,-0.7146,-0.7121,-0.7121,-0.7092,-0.711,0,0,0,0,0,0,0,0,0,0,-0.7134,-0.7144,-0.7156,-0.7156,-0.7146,-0.7121,-0.7121,-0.7111,-0.7109,-0.7105,0,-0.7102,0,-0.7096,-0.709,-0.709,0,0,0,-0.7145,-0.7146,-0.7137,-0.7156,-0.7146,-0.7121,-0.7132,-0.711,-0.7108,-0.7103,-0.7101,-0.71,-0.7096,-0.709,-0.709,-0.707,-0.707,0,0,-0.7146,-0.7152,-0.7139,-0.7136,-0.714,-0.7133,-0.7131,-0.7109,-0.7108,-0.7101,-0.7099,-0.7095,-0.709,-0.709,-0.707,-0.707,0,0,0,-0.7151,-0.7154,-0.7146,-0.7137,-0.7133,-0.7132,-0.7131,-0.7109,-0.7106,-0.7099,-0.7095,-0.709,-0.709,-0.707,-0.707,-0.7074,0,0,0,-0.7152,-0.7156,-0.7146,-0.715,-0.7133,-0.712,-0.7131,-0.7107,-0.7104,-0.7095,-0.709,-0.7089,-0.707,-0.707,-0.7074,-0.7075,0,0,0,-0.7157,-0.7157,-0.7154,-0.715,-0.714,-0.712,-0.7116,-0.7106,-0.7102,-0.709,-0.7089,-0.707,-0.707,-0.7074,-0.7075,-0.7071,0,0,0,-0.7164,-0.7158,-0.7154,-0.7145,-0.714,-0.7123,-0.7116,-0.7103,-0.7094,-0.709,-0.707,-0.707,-0.7074,-0.7075,-0.7071,-0.707,-0.7069,0,0,-0.7159,-0.7157,-0.7152,-0.7148,-0.7133,-0.7126,-0.7113,-0.7098,-0.7092,-0.7078,-0.7077,-0.7074,-0.7075,-0.7071,-0.7066,-0.7066,0,0,0,-0.7152,-0.7148,-0.7143,-0.7134,-0.7123,-0.7113,-0.7101,-0.7095,-0.7083,-0.7086,-0.7072,-0.7072,-0.707,-0.7069,-0.7068,-0.7066,-0.707,-0.707,-0.707,-0.7154,-0.7146,-0.7136,-0.7125,-0.7117,-0.7103,-0.7096,-0.7086,-0.7081,-0.7078,-0.7074,-0.7071,-0.707,-0.707,-0.7068,-0.7072,-0.7072,-0.7072,-0.7072,-0.7146,-0.7139,-0.7132,-0.712,-0.7112,-0.7102,-0.7089,-0.7085,-0.7075,-0.7074,-0.7071,-0.7071,-0.707,-0.7068,-0.7072,-0.7072,-0.7072,-0.7072,-0.7072,-0.7146,-0.7142,-0.7135,-0.7122,-0.7112,-0.7101,-0.7092,-0.7084,-0.7078,-0.7075,-0.707,-0.707,-0.7069,-0.7073,-0.7073,-0.7073,-0.7073,-0.7073,-0.7073,-0.7149,-0.7142,-0.7134,-0.7122,-0.7115,-0.7106,-0.7093,-0.7086,-0.7077,-0.7072,-0.7072,-0.7067,-0.7072,-0.7073,-0.7073,-0.7073,-0.7073,-0.7073,-0.7073,-0.7144,-0.7144,-0.7133,-0.7126,-0.7111,-0.7102,-0.7093,-0.708,-0.7074,-0.7069,-0.7065,-0.7069,-0.7067,-0.7067,-0.7068,-0.7066,-0.7066,-0.7066,-0.7066,-0.7144,-0.7142,-0.7129,-0.7119,-0.7108,-0.7099,-0.7086,-0.7076,-0.7066,-0.7062,-0.7061,-0.7062,-0.7062,-0.7059,-0.7059,-0.706,-0.7057,-0.7057,-0.7057,-0.7141,-0.7137,-0.7128,-0.7117,-0.7105,-0.7095,-0.7083,-0.7072,-0.7061,-0.7056,-0.7058,-0.7058,-0.706,-0.706,-0.7056,-0.7056,-0.7058,0,0]},{"header":{"parameterUnit":"m.s-1","parameterCategory":1,"la1":30.2992,"la2":30.254,"lo1":-89.0895,"lo2":-89.0443,"dy":0.0025,"dx":0.0025,"nx":19,"ny":19,"refTime":"2026-03-26T21:00:00:Z","depth":0,"parameterNumber":3,"parameterNumberName":"V-component_of_WINDS"},"data":[0,0,0,5.0736,5.0738,5.0808,5.0808,5.0908,5.0909,0,0,0,0,0,0,0,0,0,0,0,5.0724,5.0725,5.0736,5.0738,5.0807,5.0808,5.0908,5.0909,0,0,0,0,0,0,0,0,0,0,0,5.0724,5.0725,5.0726,5.0738,5.0807,5.0808,5.0907,5.085,0,0,0,0,0,0,0,0,0,0,5.078,5.0779,5.0725,5.0726,5.0739,5.0807,5.0808,5.0847,5.0854,5.0882,0,5.0911,0,5.0912,5.0916,5.0917,0,0,0,5.073,5.0774,5.0785,5.0727,5.0739,5.0807,5.0774,5.0851,5.0858,5.0891,5.0912,5.0916,5.0914,5.0917,5.0918,5.1111,5.1112,0,0,5.0726,5.0741,5.078,5.079,5.0783,5.0772,5.0776,5.0855,5.0879,5.0913,5.0918,5.0915,5.0918,5.0919,5.111,5.1111,0,0,0,5.0721,5.0739,5.0747,5.0786,5.0798,5.0774,5.0779,5.0875,5.0877,5.0919,5.0916,5.0919,5.092,5.1108,5.111,5.1188,0,0,0,5.0718,5.0735,5.0746,5.0756,5.0797,5.0838,5.0798,5.0872,5.088,5.0916,5.0919,5.0921,5.1107,5.1109,5.1183,5.1222,0,0,0,5.0717,5.0735,5.0748,5.0756,5.0787,5.0837,5.0843,5.0873,5.0879,5.0917,5.0921,5.1106,5.1109,5.1179,5.1215,5.1279,0,0,0,5.0719,5.0814,5.075,5.0856,5.0787,5.0885,5.0842,5.0914,5.0955,5.0919,5.1107,5.111,5.1177,5.121,5.1274,5.1336,5.1363,0,0,5.0847,5.083,5.0891,5.0836,5.095,5.0873,5.0998,5.102,5.1009,5.1077,5.1082,5.1185,5.1214,5.1278,5.1509,5.153,0,0,0,5.0937,5.0981,5.1008,5.1051,5.1073,5.1094,5.1097,5.1106,5.1164,5.1048,5.1224,5.1241,5.1278,5.1307,5.1325,5.1356,5.1124,5.1124,5.1123,5.1138,5.1122,5.1223,5.1215,5.1256,5.126,5.1291,5.1303,5.1271,5.1314,5.1334,5.1476,5.1511,5.1524,5.1557,5.1364,5.1365,5.1365,5.1365,5.1326,5.1386,5.1346,5.1429,5.141,5.1478,5.1485,5.1461,5.1521,5.1459,5.149,5.1424,5.1549,5.1576,5.1371,5.137,5.1369,5.1369,5.1368,5.1456,5.1483,5.1494,5.1555,5.1603,5.1591,5.1652,5.1632,5.1612,5.1644,5.1663,5.1662,5.1658,5.1655,5.1655,5.1656,5.1656,5.1656,5.1657,5.1587,5.1598,5.1653,5.1687,5.1713,5.1743,5.1749,5.1772,5.1793,5.1773,5.1773,5.1739,5.1564,5.1521,5.1664,5.1663,5.1662,5.1661,5.1661,5.1784,5.1737,5.1823,5.1849,5.1887,5.1938,5.1912,5.1962,5.1978,5.2009,5.1968,5.1843,5.1823,5.1808,5.1772,5.1971,5.1971,5.1971,5.1971,5.1895,5.1884,5.1968,5.2012,5.2051,5.2038,5.2134,5.2139,5.2137,5.2146,5.2114,5.2065,5.2051,5.2039,5.2019,5.1986,5.2235,5.2235,5.2235,5.2015,5.2008,5.2095,5.2095,5.2124,5.2149,5.2239,5.2289,5.2276,5.2245,5.2153,5.2142,5.2062,5.2037,5.2004,5.1974,5.1912,0,0]}]]